Regional Weather Roundup
Issued by NWS Little Rock, AR

Home | Current Version | Previous Version | Graphics & Text | Print | Product List | Glossary On
Versions: 1 2 3 4 5 6 7 8 9 10 11 12 13 14 15 16 17 18 19 20 21 22 23 24 25 26 27 28 29 30 31 32 33 34 35 36 37 38 39 40 41 42 43 44 45 46 47 48 49 50
000
ASUS44 KLZK 200205
RWRLZK

WEATHER ROUNDUP FOR ARKANSAS
NATIONAL WEATHER SERVICE LITTLE ROCK AR
900 PM CDT TUE AUG 19 2014

NOTE: "FAIR" INDICATES FEW OR NO CLOUDS BELOW 12,000 FEET WITH NO
SIGNIFICANT WEATHER AND/OR OBSTRUCTIONS TO VISIBILITY.

ARZ001-003-010-029-200300-
NORTHWEST ARKANSAS

CITY           SKY/WX    TMP DP  RH WIND       PRES   REMARKS
FAYETTEVILLE   CLEAR     81  73  76 CALM      29.90R HX  86
FORT SMITH     CLEAR     84  74  71 S5        29.85R HX  91
HARRISON       CLEAR     79  72  79 S3        29.90R
BENTONVILLE    CLEAR     82  70  65 S3        29.90R HX  86
ROGERS         CLEAR     83  68  60 CALM      29.90R HX  86
SILOAM SPGS    CLEAR     79  68  69 S7        29.89R
HIGHFILL       CLEAR     82  70  66 S3        29.89R HX  86
SPRINGDALE     PTCLDY    84  72  65 W7        29.91R HX  89
$$

ARZ004-005-016-200300-
NORTH CENTRAL ARKANSAS

CITY           SKY/WX    TMP DP  RH WIND       PRES   REMARKS
BATESVILLE     PTCLDY    75  73  94 S5        29.86R
FLIPPIN          N/A     86  70  58 SW6       29.87R HX  90
MTN HOME       PTCLDY    83  74  74 SW3       29.87R HX  89
$$

ARZ040-041-200300-
WEST CENTRAL ARKANSAS

CITY           SKY/WX    TMP DP  RH WIND       PRES   REMARKS
MENA           CLEAR     82  77  83 CALM      29.93S HX  91
MOUNT IDA      MOCLDY    83  75  77 CALM      29.90R HX  90
$$

ARZ009-017-025-026-028-200300-
NORTHEAST ARKANSAS

CITY           SKY/WX    TMP DP  RH WIND       PRES   REMARKS
CORNING        FAIR      82  75  78 SE6       29.84R HX  89
JONESBORO      MOCLDY    85  76  74 SW10      29.85R HX  94
NEWPORT        MOCLDY    84  79  85 S8        29.86R HX  95
WALNUT RIDGE   PTCLDY    82  73  74 S8        29.83R HX  88
BLYTHEVILLE    MOCLDY    81  77  88 S7        29.85S HX  88
$$

ARZ022-023-033-042-044-200300-
CENTRAL ARKANSAS

CITY           SKY/WX    TMP DP  RH WIND       PRES   REMARKS
LITTLE ROCK    PTCLDY    85  75  72 SW9       29.88R HX  93
N LITTLE ROCK  PTCLDY    85  78  77 SW9G16    29.88R HX  96
JACKSONVILLE   PTCLDY    86  77  73 SW8       29.88R HX  97
SEARCY           N/A     84  78  82 CALM        N/A  HX  94
HOT SPRINGS    MOCLDY    84  74  71 W3        29.91R HX  91
RUSSELLVILLE   MOCLDY    80  73  79 CALM      29.87R
CLINTON        FAIR      81  73  78 CALM      29.88R HX  85
$$

ARZ036-200300-
EAST ARKANSAS

CITY           SKY/WX    TMP DP  RH WIND       PRES   REMARKS
WEST MEMPHIS   CLEAR     84  78  82 S6        29.86S HX  95
$$

ARZ050-053-066-070-073-200300-
SOUTHWEST ARKANSAS

CITY           SKY/WX    TMP DP  RH WIND       PRES   REMARKS
ARKADELPHIA    FAIR      81  80  96 CALM      29.90R HX  91
CAMDEN         PTCLDY    82  75  78 S3        29.89S HX  89
TEXARKANA      PTCLDY    82  70  66 S10G21    29.91R HX  86
EL DORADO      PTCLDY    82  75  79 S8        29.92R HX  89
DE QUEEN       PTCLDY    79  76  90 E3        29.87S
$$

ARZ056-057-069-200300-
SOUTHEAST ARKANSAS

CITY           SKY/WX    TMP DP  RH WIND       PRES   REMARKS
PINE BLUFF     CLEAR     83  77  82 S5        29.89S HX  92
STUTTGART      CLEAR     82  77  83 SW7       29.89R HX  91
MONTICELLO     CLEAR     84  69  60 SW6       29.91R HX  88

$$




USA.gov is the U.S. government's official web portal to all federal, state and local government web resources and services.